Back to catalog

STARLINK-32691

AliveCommunicationsVLEO
NORAD 62501·PAYLOAD·🇺🇸 United States

Launched Jan 6, 2025 from Cape Canaveral Space Force Station

Loading…

Next Passes (next 24 hours)

TLE

FreshSource: CelesTrak SupGP

Epoch: Sep 14, 2026, 14:13 UTC

1 62501C 25003Q   26257.59284722  .00045617  00000+0  16524-2 0  2574
2 62501  43.0009 302.1111 0001570 275.3419  34.6658 15.27552173    16

Track STARLINK-32691 in real time with AllMySat

Download on the App Store